Flag for United Kingdom Weather past 2 weeks in Colchester, England, United Kingdom

Now
54 °F

Passing clouds.


Feels Like: 51 °F
Forecast: 51 / 63 °F
Wind: 9 mph from Southwest

Location: Cranfield

Current Time: Aug 21, 2014 at 9:17:55 AM

Latest Report: Aug 21, 2014 at 8:50 AM


Visibility: N/A

Pressure: 29.98 "Hg

Humidity: 88%

Dew point: 50 °F

Location of ColchesterLocation

Historic Weather in Colchester — Graph

°F

Colchester temperature yesterday

Maximum temperature yesterday: 63 °F (at 12:50 PM)
Minimum temperature yesterday: 50 °F (at 7:50 AM)
Average temperature yesterday: 59 °F

Past Weeks' High & Low Weather Summary

 TemperatureHumidityPressure
High77 °F (Aug 6, 1:50 PM)100% (Aug 6, 8:20 AM)30.15 "Hg (Aug 6, 8:20 AM)
Low46 °F (Aug 21, 7:20 AM)36% (Aug 7, 4:50 PM)29.24 "Hg (Aug 10, 12:50 PM)
Average65 °F70%29.81 "Hg
* Reported Aug 6 8:20 AM — Aug 21 8:20 AM, Colchester, Weather by CustomWeather, © 2014

Note: Actual official high and low records may vary slightly from our data, if they occured in-between our weather recording intervals... More about our weather records

Advertising

Colchester weather history for previous 24 hours

 ConditionsComfort  
Time TempWeatherWind HumidityBarometerVisibility
8:20 AM
Aug 21
50 °FSunny.9 mph100%29.98 "Hg10 mi
7:50 AM48 °FSunny.9 mph100%29.98 "Hg10 mi
7:20 AM46 °FSunny.8 mph100%29.98 "Hg10 mi
5:50 PM
Aug 20
61 °FPassing clouds.10 mph55%30.01 "HgN/A
5:20 PM63 °FPassing clouds.10 mph52%30.01 "HgN/A
4:50 PM63 °FPassing clouds.10 mph52%30.01 "HgN/A
4:20 PM63 °FPassing clouds.10 mph52%30.01 "HgN/A
3:50 PM63 °FPassing clouds.12 mph52%30.01 "HgN/A
3:20 PM63 °FPassing clouds.12 mph52%30.01 "HgN/A
2:50 PM61 °FScattered clouds.10 mph52%30.01 "HgN/A
2:20 PM61 °FScattered clouds.12 mph52%30.01 "HgN/A
1:50 PM61 °FScattered clouds.12 mph52%30.01 "HgN/A
1:20 PM63 °FScattered clouds.10 mph49%30.01 "HgN/A
12:50 PM63 °FScattered clouds.8 mph49%30.01 "HgN/A
12:20 PM59 °FScattered clouds.15 mph55%30.01 "HgN/A
11:50 AM59 °FScattered clouds.9 mph59%30.01 "HgN/A
11:20 AM61 °FScattered clouds.10 mph59%30.01 "HgN/A
10:50 AM57 °FScattered clouds.7 mph67%30.01 "HgN/A
10:20 AM57 °FPassing clouds.8 mph72%30.01 "HgN/A
9:50 AM55 °FPassing clouds.8 mph82%30.04 "HgN/A
9:20 AM55 °FPassing clouds.8 mph77%30.01 "HgN/A
Weather by CustomWeather, © 2014

See weather overviewHow to use our weather pages